Weather History for KGJT - January, 2014

Change the Weather History Date:

Tuesday, January 7, 2014

  Actual Average Record
Temperature  
Mean Temperature 15 °F 26 °F  
Max Temperature 25 °F 37 °F 54 °F (1901)
Min Temperature 5 °F 16 °F -19 °F (1913)
Degree Days  
Heating Degree Days 50 39  
Month to date heating degree days 325 270  
Since 1 July heating degree days 3180 2629  
Cooling Degree Days 0 0  
Month to date cooling degree days 0 0  
Year to date cooling degree days 0 0  
Moisture  
Dew Point 10 °F    
Average Humidity 74    
Maximum Humidity 80    
Minimum Humidity 67    
Precipitation  
Precipitation 0.00 in 0.02 in 0.25 in (1993)
Month to date precipitation 0.02 0.14  
Year to date precipitation 0.02 0.14  
Snow  
Snow 0.00 in 0.20 in 4.20 in (1920)
Month to date snowfall 0.2 1.4  
Since 1 July snowfall 15.7 8.8  
Snow Depth 4.00 in    
Sea Level Pressure  
Sea Level Pressure 30.40 in    
Wind  
Wind Speed 4 mph (NNE)    
Max Wind Speed 10 mph    
Max Gust Speed 10 mph    
Visibility 10 miles    
Events      
T = Trace of Precipitation, MM = Missing Value Source: NWS Daily Summary

Daily Weather History Graph

Daily Weather History Graph

Search for Another Location

Airport or City:

Trip Planner

Search our weather history database for the weather conditions in past years. The results will help you decide how hot, cold, wet, or windy it might be!

Date:

Astronomy

Jan. 07, 2014 Rise Set
Actual Time 7:33 AM MST 5:07 PM MST
Civil Twilight 7:03 AM MST 5:37 PM MST
Nautical Twilight 6:30 AM MST 6:10 PM MST
Astronomical Twilight 5:58 AM MST 6:43 PM MST
Moon 11:27 AM MST (1/7) No Moon Set
Length of Visible Light 10h 33m
Length of Day
9h 34m
Waxing Crescent, 46% of the Moon is Illuminated
Jan 7
Waxing Crescent
Jan 7
First Quarter
Jan 15
Full
Jan 23
Last Quarter
Jan 30
New

Hourly Weather History & Observations

Time (MST) Temp. Windchill Dew Point Humidity Pressure Visibility Wind Dir Wind Speed Gust Speed Precip Events Conditions
12:53 AM 7.0 °F - 1.9 °F 80% 30.52 in 10.0 mi Calm Calm - N/A   Clear
1:53 AM 9.0 °F 2.4 °F 3.0 °F 77% 30.52 in 10.0 mi East 3.5 mph - N/A   Clear
2:53 AM 7.0 °F 0.1 °F 1.9 °F 80% 30.53 in 10.0 mi East 3.5 mph - N/A   Clear
3:53 AM 8.1 °F -0.5 °F 1.9 °F 76% 30.49 in 10.0 mi East 4.6 mph - N/A   Clear
4:53 AM 9.0 °F 2.4 °F 3.0 °F 77% 30.49 in 10.0 mi NE 3.5 mph - N/A   Clear
5:53 AM 12.9 °F 3.8 °F 3.9 °F 67% 30.48 in 10.0 mi ESE 5.8 mph - N/A   Clear
6:53 AM 14.0 °F 8.2 °F 6.1 °F 71% 30.47 in 10.0 mi ESE 3.5 mph - N/A   Clear
7:53 AM 14.0 °F 3.9 °F 6.1 °F 71% 30.48 in 10.0 mi East 6.9 mph - N/A   Clear
8:53 AM 12.9 °F - 7.0 °F 77% 30.48 in 10.0 mi Calm Calm - N/A   Clear
9:53 AM 16.0 °F 10.4 °F 7.0 °F 68% 30.46 in 10.0 mi NW 3.5 mph - N/A   Clear
10:53 AM 18.0 °F 9.8 °F 9.0 °F 68% 30.45 in 10.0 mi North 5.8 mph - N/A   Partly Cloudy
11:53 AM 19.9 °F 14.9 °F 10.0 °F 65% 30.41 in 10.0 mi WNW 3.5 mph - N/A   Partly Cloudy
12:53 PM 21.0 °F 14.6 °F 12.0 °F 68% 30.36 in 10.0 mi NW 4.6 mph - N/A   Scattered Clouds
1:53 PM 21.9 °F 17.2 °F 12.0 °F 66% 30.32 in 10.0 mi NNW 3.5 mph - N/A   Mostly Cloudy
2:53 PM 21.9 °F 15.7 °F 12.9 °F 68% 30.34 in 10.0 mi WNW 4.6 mph - N/A   Overcast
3:53 PM 23.0 °F 18.4 °F 15.1 °F 72% 30.33 in 10.0 mi NNW 3.5 mph - N/A   Overcast
4:53 PM 21.9 °F 15.7 °F 12.9 °F 68% 30.31 in 10.0 mi NNW 4.6 mph - N/A   Scattered Clouds
5:53 PM 21.0 °F 13.4 °F 12.0 °F 68% 30.31 in 10.0 mi North 5.8 mph - N/A   Overcast
6:53 PM 21.9 °F - 15.1 °F 75% 30.31 in 10.0 mi Calm Calm - N/A   Mostly Cloudy
7:53 PM 21.9 °F 17.2 °F 12.9 °F 68% 30.30 in 10.0 mi WSW 3.5 mph - N/A   Overcast
8:53 PM 21.9 °F 17.2 °F 16.0 °F 78% 30.29 in 10.0 mi ESE 3.5 mph - N/A   Overcast
9:53 PM 21.0 °F - 15.1 °F 78% 30.30 in 10.0 mi Calm Calm - N/A   Overcast
10:53 PM 21.0 °F 16.2 °F 16.0 °F 81% 30.30 in 10.0 mi ENE 3.5 mph - N/A   Overcast
11:53 PM 21.9 °F 17.2 °F 16.0 °F 78% 30.27 in 10.0 mi West 3.5 mph - N/A   Overcast